Location: St. Louis
(38.6270°N, 90.1994°W)
Time: 14:26:25
(UTC-06:00)

S-56A Canister/Altair - Pass Details

Date: 02 December 2021
Orbit: 633 x 2499 km, 38.9° (Epoch: 19 January)

Event Time Altitude Azimuth Distance (km) Brightness Sun altitude
Rises 06:19:23 0° 279° (W) 3,181 - -8.2°
Exits shadow 06:21:35 - 269° (W) 2,382 9.5 -7.8°
Reaches altitude 10° 06:22:24 10° 263° (W) 2,110 9.3 -7.6°
Maximum altitude 06:25:53 21° 214° (SW) 1,434 8.8 -7.0°
Drops below altitude 10° 06:29:14 10° 164° (SSE) 2,010 10.3 -6.4°
Sets 06:32:02 0° 148° (SSE) 2,983 11.6 -5.9°
